This demonstration page uses our WeatherBlox Daily Observations layout. Learn more.

Left ArrowRight Arrow

36.19886, -115.1175

Hourly Observations for February 9, 2019

Temp ( °F °C ) Dew Point ( °F °C ) Humidity (%) Winds ( mph kmh ) Pressure ( in mb ) Visibility ( mi km ) Precip ( " mm )
12:53 am 00:53 Clear 34 1.1 22 -5.6 61 61 NNE 3 6 30.03 1017 10 16 0.00 0.00
1:53 am 01:53 Clear 35 1.7 22 -5.6 59 59 WNW 3 6 30.02 1017 10 16 0.00 0.00
2:53 am 02:53 Clear 34 1.1 22 -5.6 61 61 WNW 6 9 29.99 1016 10 16 0.00 0.00
3:53 am 03:53 Clear 33 0.6 22 -5.6 64 64 WNW 6 9 29.97 1015 10 16 0.00 0.00
4:53 am 04:53 Clear 33 0.6 22 -5.6 64 64 NNW 3 6 29.96 1015 10 16 0.00 0.00
5:53 am 05:53 Clear 33 0.6 23 -5 66 66 Calm 29.96 1015 10 16 0.00 0.00
6:53 am 06:53 Sunny 33 0.6 23 -5 66 66 Calm 29.96 1015 10 16 0.00 0.00
7:53 am 07:53 Mostly Sunny 36 2.2 23 -5 59 59 Calm 29.97 1015 10 16 0.00 0.00
8:53 am 08:53 Cloudy 38 3.3 24 -4.4 57 57 ESE 5 7 29.99 1016 10 16 0.00 0.00
9:53 am 09:53 Mostly Cloudy 41 5 24 -4.4 51 51 SE 8 13 29.98 1015 10 16 0.00 0.00
10:53 am 10:53 Mostly Sunny 49 9.4 28 -2.2 44 44 E 6 9 29.96 1014 10 16 0.00 0.00
11:53 am 11:53 Mostly Sunny 54 12.2 25 -3.9 33 33 WSW 21 33 29.93 1014 10 16 0.00 0.00
12:53 pm 12:53 Sunny 55 12.8 23 -5 29 29 WSW 20 31 29.91 1013 10 16 0.00 0.00
1:53 pm 13:53 Sunny 55 12.8 23 -5 29 29 WSW 23 37 29.90 1013 10 16 0.00 0.00
2:53 pm 14:53 Sunny 56 13.3 24 -4.4 29 29 SW 17 28 29.91 1013 10 16 0.00 0.00
3:53 pm 15:53 Sunny 55 12.8 24 -4.4 30 30 SW 14 22 29.91 1013 10 16 0.00 0.00
4:53 pm 16:53 Sunny 53 11.7 25 -3.9 34 34 SW 12 19 29.91 1013 10 16 0.00 0.00
5:53 pm 17:53 Clear 52 11.1 26 -3.3 37 37 SSW 13 20 29.92 1013 10 16 0.00 0.00
6:53 pm 18:53 Clear 50 10 27 -2.8 41 41 SSW 13 20 29.93 1014 10 16 0.00 0.00
7:53 pm 19:53 Clear 49 9.4 27 -2.8 43 43 S 12 19 29.94 1014 10 16 0.00 0.00
8:53 pm 20:53 Clear 50 10 26 -3.3 39 39 SSW 16 26 29.94 1014 10 16 0.00 0.00
9:53 pm 21:53 Clear 48 8.9 27 -2.8 44 44 S 18 30 29.95 1014 10 16 0.00 0.00
10:53 pm 22:53 Clear 48 8.9 27 -2.8 44 44 SSW 10 17 29.94 1014 10 16 0.00 0.00
11:53 pm 23:53 Clear 48 8.9 27 -2.8 44 44 S 22 35 29.93 1014 10 16 0.00 0.00

Powered by AerisWeather